Home > Weather > Naples > Past weeks

Flag for USA Past Weather in Naples, Florida, USA — Yesterday and Last 2 Weeks

Now
91 °F

Broken clouds.


Feels Like: 101 °F
Forecast: 78 / 91 °F
Wind: 7 mph from Southeast

Location: Naples Municipal

Current Time: Jul 28, 2016 at 2:20:39 PM

Latest Report: Jul 28, 2016 at 1:53 PM


Visibility: 10 mi

Pressure: 30.03 "Hg

Humidity: 57%

Dew Point: 74 °F

Location of NaplesLocation

Past Weather in Naples — Graph

°F

Naples Temperature Yesterday

Maximum temperature yesterday: 91 °F (at 12:53 PM)
Minimum temperature yesterday: 77 °F (at 12:53 AM)
Average temperature yesterday: 82 °F

High & Low Weather Summary for the Past Weeks

 TemperatureHumidityPressure
High93 °F (Jul 26, 1:53 PM)100% (Jul 16, 6:53 PM)30.16 "Hg (Jul 16, 6:53 PM)
Low73 °F (Jul 23, 3:53 AM)49% (Jul 26, 1:53 PM)29.98 "Hg (Jul 15, 5:53 PM)
Average81 °F82%30.06 "Hg
* Reported Jul 13 12:53 PM — Jul 28 12:53 PM, Naples, Weather by CustomWeather, © 2016

Note: Actual official high and low records may vary slightly from our data, if they occured in-between our weather recording intervals... More about our weather records

Advertising

Naples Weather History for the Previous 24 Hours

Scroll right to see more
 ConditionsComfort  
Time TempWeatherWind HumidityBarometerVisibility
12:53 PM
Thu, Jul 28
90 °FScattered clouds.9 mph57%30.05 "Hg10 mi
11:53 AM89 °FPassing clouds.6 mph63%30.06 "Hg10 mi
10:53 AM88 °FScattered clouds.10 mph65%30.07 "Hg10 mi
9:53 AM86 °FScattered clouds.9 mph72%30.07 "Hg10 mi
8:53 AM83 °FSunny.6 mph82%30.07 "Hg10 mi
7:53 AM78 °FSunny.7 mph93%30.05 "Hg9 mi
6:53 AM77 °FClear.5 mph94%30.04 "Hg8 mi
5:53 AM77 °FClear.6 mph94%30.03 "Hg9 mi
4:53 AM77 °FClear.5 mph94%30.03 "Hg10 mi
3:53 AM77 °FClear.5 mph94%30.03 "Hg10 mi
2:53 AM78 °FClear.No wind93%30.03 "Hg10 mi
1:53 AM79 °FClear.No wind90%30.04 "Hg10 mi
12:53 AM79 °FClear.3 mph90%30.05 "Hg10 mi
11:53 PM
Wed, Jul 27
80 °FClear.No wind87%30.05 "Hg10 mi
10:53 PM81 °FClear.No wind88%30.05 "Hg10 mi
9:53 PM82 °FPassing clouds.No wind82%30.03 "Hg10 mi
8:53 PM82 °FPartly sunny.No wind82%30.02 "Hg10 mi
7:53 PM83 °FScattered clouds.No wind79%30.01 "Hg10 mi
6:53 PM83 °FScattered clouds.No wind79%30.00 "Hg10 mi
5:53 PM81 °FPassing clouds.No wind82%29.99 "Hg10 mi
4:53 PM78 °FThunderstorms. Scattered clouds.13 mph90%30.01 "Hg9 mi
3:55 PM82 °FThunderstorms. Cloudy.13 mph77%30.02 "Hg5 mi
2:53 PM88 °FScattered clouds.10 mph67%30.03 "Hg10 mi
Weather by CustomWeather, © 2016

See weather overviewHow to use our weather pages